ELO-3 (56216 NORAD) Tracking and Keplerian Element Data

This shows tracking and keplerian element data for the satellite.

Feedback or suggestion? Click here.




ElementValue
Catalog56216
NameELO-3
Epoch Orbit241
Epoch Day117.8196212
Epoch Year2023
RAAN13.4739
Inclination97.4083
Eccentricity0.0007855
Argument of Perigee176.869
Mean Anonmoly183.2596
Mean Motion15.21213273
Decay Rate0.00014346
L11 56216U 23054AQ 23117.81962120 .00014346 00000+0 64482-3 0 9991
L22 56216 97.4083 13.4739 0007855 176.8690 183.2596 15.21213273 2410



Live tracking and technical data element details for ELO-3 (NORAD 56216). ELO-3 can be tracked NOW for your location showing map with azimuth and elevation plus other details from your city location.







IsCatalogInMostPopularTable: catalog: 56216, numindb: 9
Update: records affected: 1



GetName: 56216 ELO-3

Hit Count: updated at: Wed, 07 Jun 2023 08:50:13 GMT